Wind_Speed
8 9 10 11 11 11 11 11 11 11 11 12 13 14 15 15 16 17 18 19 20 21 22 23 23 23 23 24 24 24 25 25 25 26 26 26 26 26 26 26 26 26 27
9 10 11 11 12 12 13 13 13 14 14 15 16 17 18 18 19 20 21 22 23 24 24 25 25 25 25 26 26 26 26 26 27 27 28 28 28 28 28 27 28 28 28
10 11 12 13 14 14 15 15 16 17 17 18 19 20 20 21 22 23 24 25 26 26 26 27 27 26 26 27 27 28 28 28 28 29 29 30 30 30 29 29 29 29 28
13 13 14 15 16 17 17 18 19 20 20 21 22 23 23 24 25 26 27 27 28 28 28 28 28 28 28 28 29 29 30 30 30 30 31 31 31 31 31 31 31 30 30
15 16 16 17 17 18 19 20 21 22 23 24 25 25 26 27 28 28 29 29 30 30 30 30 30 30 30 30 31 31 31 32 32 32 32 33 33 33 33 33 32 31 31
17 18 18 19 19 20 21 22 23 24 25 26 27 27 28 29 30 30 31 31 31 31 32 32 32 32 32 33 33 33 33 34 34 34 34 35 35 35 35 35 34 33 33
19 20 21 22 22 23 23 24 25 26 27 28 29 29 30 31 32 32 33 33 33 33 33 33 33 34 34 34 35 35 36 36 36 36 36 36 37 37 37 36 36 35 34
21 22 23 24 24 25 26 27 28 29 30 30 31 32 33 33 34 34 35 35 35 35 35 35 35 36 37 37 37 37 37 37 38 38 37 38 38 38 38 38 37 37 36
23 24 25 26 26 27 27 28 29 31 31 33 34 34 34 34 35 36 37 36 36 36 37 37 38 38 38 39 39 39 38 38 39 39 38 38 39 39 39 39 39 39 38
25 26 28 29 29 29 29 30 31 31 32 33 34 34 35 36 36 37 37 38 38 39 39 39 39 39 39 40 40 40 39 40 40 40 41 41 41 40 41 41 41 40 40
27 27 28 29 30 30 31 31 33 33 33 33 34 36 36 36 37 37 38 40 41 41 40 40 40 40 41 41 41 41 42 42 42 42 42 42 42 42 42 42 42 42 41
28 30 31 31 32 32 32 33 34 35 35 36 37 37 38 38 39 39 40 40 41 42 42 42 42 42 42 42 43 44 44 45 45 44 44 44 44 44 44 44 44 43 42
31 31 32 33 34 34 34 34 35 36 38 38 39 39 39 40 40 40 41 42 43 44 44 45 45 44 45 45 46 47 47 47 47 47 47 46 46 46 46 45 45 44 43
32 33 33 34 35 36 35 35 37 38 38 39 40 41 41 42 42 43 44 45 45 46 46 46 47 48 48 48 49 50 49 50 50 50 49 48 48 47 46 46 46 44 43
35 35 36 36 37 37 37 37 38 39 40 41 42 44 44 45 46 46 47 48 49 49 50 50 50 51 51 52 52 51 51 51 52 52 51 50 49 48 47 47 46 44 42
37 37 37 38 39 38 38 38 38 39 41 42 43 45 47 48 49 49 50 51 51 52 52 52 52 53 53 54 54 54 53 53 53 52 50 49 48 48 47 46 45 44 42
38 38 38 38 39 38 39 40 41 41 43 44 45 47 48 48 49 50 51 52 53 53 53 53 54 54 55 54 54 54 53 53 52 52 51 49 49 48 46 45 44 43 42
38 39 39 39 40 40 41 42 42 43 44 46 47 48 49 50 50 51 52 53 54 54 54 54 54 55 54 53 53 53 52 52 52 51 50 48 47 46 45 44 42 42 40
37 38 39 40 40 41 42 43 44 45 46 48 49 50 51 52 52 52 53 54 54 54 54 54 54 54 53 53 53 53 52 51 50 49 48 47 45 44 43 42 40 39 38
37 38 39 40 41 42 43 44 46 48 49 51 51 52 53 53 53 53 53 54 53 53 54 53 53 53 53 52 52 51 50 49 47 47 45 45 43 42 40 39 37 37 37
39 40 41 42 43 44 45 47 48 49 51 52 52 52 52 52 52 52 53 53 53 52 52 52 51 51 50 49 48 46 45 44 43 42 42 41 40 39 37 36 36 35 35
41 42 43 44 45 46 47 48 49 50 51 51 50 49 50 50 50 50 50 50 49 49 49 49 48 47 46 45 44 43 42 41 41 40 40 38 36 36 35 34 34 34 34
42 43 44 45 46 47 47 48 48 48 48 48 48 48 48 48 48 48 48 48 48 47 47 47 45 44 43 42 41 41 40 39 38 38 37 35 34 33 33 32 32 32 32
43 44 45 46 47 47 47 47 47 47 46 47 47 47 47 47 47 47 47 46 46 46 45 44 43 42 41 40 39 39 38 38 36 35 34 33 32 31 31 31 30 30 29
44 45 46 46 46 46 46 46 46 46 46 46 45 45 45 45 45 45 45 45 45 44 43 41 40 40 38 37 36 36 35 34 34 33 32 31 31 30 30 29 29 28 27
45 45 46 45 45 45 44 45 45 45 44 44 44 43 43 43 43 43 43 43 42 40 39 38 37 35 34 33 33 32 31 30 30 30 29 29 28 28 27 27 26 25 25
Wind_Direction
207 208 210 214 217 222 229 236 244 252 260 267 275 281 287 292 295 297 299 302 305 307 308 309 309 310 310 311 311 312 312 313 313 312 312 312 311 308 306 303 300 297 294
221 222 224 226 230 235 243 249 255 261 267 272 278 283 287 291 293 295 297 300 302 304 305 306 305 306 306 307 308 309 309 310 310 310 311 311 310 308 306 304 303 299 295
234 236 237 239 243 248 252 257 262 267 272 276 280 284 287 290 292 294 296 298 300 301 302 302 302 302 303 304 305 306 306 306 307 308 308 308 308 308 306 304 303 301 297
244 244 246 249 253 257 260 264 267 271 275 278 282 284 287 289 291 293 294 296 298 299 299 300 300 299 300 301 303 304 304 304 305 305 306 307 307 306 305 304 302 300 298
251 252 254 256 259 262 265 268 272 275 278 281 283 284 287 289 290 292 293 294 296 296 297 297 297 297 297 299 300 301 302 302 302 304 305 305 305 304 303 303 301 300 298
257 258 260 262 264 266 269 272 275 277 279 281 283 285 287 288 289 290 291 292 293 294 295 295 295 295 297 298 299 299 300 301 301 302 303 304 304 303 303 302 301 300 298
262 264 266 267 268 269 271 273 276 278 280 282 284 285 287 288 289 289 290 291 291 292 293 294 294 295 296 297 297 298 299 300 300 301 302 303 303 303 302 302 301 301 299
267 268 270 271 271 272 274 276 278 279 281 282 283 284 286 287 287 288 289 290 291 292 293 294 294 295 296 296 296 297 298 299 299 299 300 301 302 302 302 301 300 299 298
271 272 273 273 274 275 276 278 280 281 282 283 284 284 285 286 287 288 289 289 291 292 292 293 293 294 295 295 296 297 297 297 298 298 298 299 300 300 300 300 299 298 297
271 274 275 275 277 277 279 281 282 283 284 284 284 284 284 286 287 288 288 289 291 291 291 292 293 294 294 295 295 295 296 296 296 297 297 298 299 299 299 299 299 297 295
273 276 276 276 278 280 279 281 281 283 283 286 287 287 287 286 286 287 288 290 290 290 291 293 293 293 293 293 294 295 295 295 296 296 297 297 298 298 298 298 297 296 295
278 278 278 280 281 281 281 282 282 282 284 286 287 287 287 287 287 288 288 289 289 290 291 292 293 293 293 293 294 294 294 294 295 295 296 296 296 296 296 296 296 295 293
278 279 280 282 282 283 282 282 284 285 286 286 286 287 287 287 288 289 290 290 290 290 290 291 291 291 292 293 293 293 293 293 293 294 294 295 295 295 295 295 295 294 292
281 282 282 282 282 283 282 283 284 285 286 286 286 286 287 288 287 288 289 290 290 290 290 290 291 291 291 291 292 292 292 291 292 293 293 293 293 293 293 293 292 291 290
280 282 282 283 282 283 283 283 284 284 285 285 285 285 286 286 287 287 288 290 290 290 290 291 291 292 291 291 291 290 290 290 290 291 291 291 291 291 291 291 290 289 287
281 283 283 283 284 285 283 284 285 286 285 285 285 286 287 287 287 288 289 290 290 291 292 292 291 291 291 291 291 290 290 289 289 290 289 289 289 289 288 287 287 287 285
280 282 284 285 285 284 284 285 286 286 286 286 287 288 288 288 288 289 290 292 292 292 292 292 292 292 292 292 291 291 290 290 289 288 288 288 288 287 286 286 286 285 283
282 284 284 285 286 285 285 285 286 286 287 288 288 289 289 290 290 291 292 293 293 293 293 293 293 292 292 291 291 290 289 289 288 288 287 286 285 285 284 283 283 282 281
283 283 284 285 285 286 287 287 288 289 291 291 291 291 291 292 292 292 292 292 293 293 293 293 293 292 292 291 290 289 288 287 287 287 285 284 284 283 282 281 280 279 279
287 288 289 289 290 290 291 291 292 292 292 293 293 293 293 293 293 293 293 293 293 293 293 293 293 292 292 290 289 288 287 286 285 284 283 282 282 280 280 279 278 277 277
289 290 290 290 291 292 292 293 293 293 294 294 294 294 294 294 293 293 293 294 294 294 294 294 294 293 292 291 290 289 288 286 284 283 282 281 280 279 279 278 276 276 276
290 291 291 291 291 292 293 294 294 294 294 294 294 294 294 294 294 295 295 295 295 295 295 295 295 294 293 291 290 288 288 286 283 282 282 280 280 279 278 277 276 275 275
290 291 291 292 292 293 293 294 294 294 294 293 293 294 294 295 296 297 297 296 296 296 295 295 294 293 293 292 291 289 288 285 283 282 281 279 278 277 276 275 275 275 274
293 293 293 293 294 294 294 294 295 295 295 295 295 296 296 296 297 297 297 296 296 296 295 294 293 293 292 291 290 289 288 286 283 281 279 277 276 275 274 272 274 274 273
294 294 294 294 294 293 294 295 296 296 297 298 298 298 298 298 298 298 298 298 297 297 296 294 293 293 292 290 288 289 289 286 283 281 278 276 275 274 272 271 271 272 272
295 295 295 295 295 294 295 295 296 297 297 298 298 298 298 298 299 299 299 299 298 297 296 295 294 292 291 289 289 288 288 286 284 281 278 276 274 272 270 269 270 269 270
Height
5852 5854 5856 5858 5860 5861 5863 5864 5865 5866 5867 5868 5868 5868 5868 5868 5867 5867 5866 5865 5864 5863 5861 5860 5858 5856 5854 5852 5850 5848 5846 5843 5841 5838 5836 5834 5832 5829 5827 5825 5823 5821 5820
5851 5853 5854 5856 5858 5859 5860 5862 5863 5864 5864 5864 5864 5864 5864 5864 5863 5862 5862 5860 5859 5858 5856 5855 5853 5851 5849 5847 5845 5842 5840 5838 5836 5833 5830 5828 5825 5823 5820 5818 5816 5814 5812
5849 5851 5852 5854 5855 5857 5858 5859 5859 5860 5860 5860 5860 5860 5860 5859 5858 5857 5856 5855 5854 5852 5851 5849 5847 5845 5843 5841 5839 5836 5834 5832 5829 5827 5824 5821 5819 5816 5813 5811 5808 5806 5804
5847 5848 5850 5851 5852 5853 5854 5855 5855 5856 5856 5856 5855 5855 5854 5853 5853 5852 5850 5849 5847 5846 5844 5842 5841 5839 5836 5834 5832 5830 5827 5825 5822 5820 5817 5815 5812 5808 5806 5803 5801 5798 5796
5844 5845 5846 5847 5848 5849 5849 5850 5850 5850 5850 5850 5849 5849 5848 5847 5846 5845 5843 5842 5840 5839 5837 5835 5833 5831 5829 5827 5825 5822 5820 5817 5815 5812 5810 5807 5804 5801 5798 5795 5793 5790 5787
5840 5841 5841 5842 5843 5843 5844 5844 5844 5844 5844 5844 5843 5842 5841 5840 5839 5838 5836 5834 5833 5831 5829 5827 5825 5823 5821 5819 5817 5814 5811 5809 5806 5804 5801 5798 5795 5792 5789 5786 5783 5781 5779
5835 5835 5836 5837 5837 5837 5838 5838 5838 5837 5837 5836 5835 5835 5834 5832 5831 5829 5828 5826 5824 5823 5821 5819 5817 5815 5813 5811 5808 5805 5803 5800 5797 5794 5792 5788 5785 5782 5779 5776 5773 5770 5768
5829 5830 5830 5830 5831 5831 5831 5831 5831 5830 5829 5829 5828 5826 5825 5824 5822 5821 5819 5817 5816 5814 5812 5810 5808 5805 5803 5801 5798 5796 5794 5790 5787 5785 5782 5779 5775 5772 5768 5766 5763 5760 5757
5823 5824 5824 5824 5824 5824 5823 5823 5822 5822 5821 5820 5819 5818 5816 5815 5813 5812 5810 5808 5807 5805 5803 5800 5798 5796 5793 5790 5788 5786 5783 5780 5777 5774 5772 5769 5765 5762 5758 5755 5752 5749 5747
5816 5816 5817 5816 5816 5815 5815 5815 5814 5813 5812 5810 5809 5808 5807 5805 5804 5802 5800 5798 5797 5795 5793 5790 5788 5785 5783 5780 5777 5774 5772 5769 5766 5763 5760 5757 5754 5751 5747 5743 5740 5737 5735
5810 5810 5809 5808 5807 5807 5806 5806 5805 5804 5802 5801 5800 5799 5797 5795 5794 5792 5790 5788 5786 5783 5781 5779 5777 5774 5772 5769 5766 5763 5760 5757 5754 5751 5748 5745 5742 5739 5735 5732 5728 5724 5722
5802 5802 5801 5800 5799 5798 5797 5797 5795 5793 5792 5791 5790 5789 5787 5785 5783 5781 5779 5776 5774 5772 5769 5767 5764 5762 5759 5757 5754 5751 5747 5744 5741 5738 5736 5733 5730 5726 5722 5719 5716 5712 5709
5793 5793 5793 5792 5790 5789 5789 5787 5786 5784 5782 5781 5780 5778 5776 5774 5772 5770 5768 5765 5762 5760 5757 5754 5751 5749 5746 5743 5740 5737 5733 5730 5727 5724 5722 5719 5715 5712 5708 5705 5702 5698 5695
5785 5784 5783 5782 5781 5779 5778 5777 5776 5774 5772 5771 5769 5767 5765 5763 5760 5758 5756 5753 5750 5746 5743 5741 5738 5735 5732 5729 5726 5722 5718 5715 5712 5709 5706 5704 5700 5697 5694 5690 5687 5684 5682
5777 5775 5774 5773 5771 5770 5768 5767 5765 5764 5762 5760 5757 5755 5752 5750 5747 5745 5742 5739 5735 5732 5729 5726 5723 5719 5716 5713 5710 5706 5703 5700 5696 5693 5690 5687 5684 5681 5679 5676 5672 5670 5668
5767 5765 5764 5763 5761 5759 5757 5755 5754 5752 5750 5747 5745 5742 5739 5736 5733 5730 5727 5724 5720 5716 5713 5710 5706 5703 5699 5696 5692 5689 5686 5683 5680 5677 5674 5671 5668 5665 5663 5661 5658 5655 5653
5757 5755 5754 5752 5750 5748 5746 5744 5742 5740 5737 5734 5732 5728 5725 5722 5719 5715 5712 5708 5704 5700 5696 5692 5688 5685 5681 5678 5674 5671 5668 5665 5662 5660 5657 5655 5652 5649 5647 5645 5643 5640 5639
5746 5744 5743 5741 5739 5736 5734 5732 5729 5726 5723 5720 5718 5714 5711 5708 5704 5700 5696 5692 5688 5683 5679 5675 5671 5667 5663 5660 5657 5654 5651 5648 5645 5643 5640 5638 5636 5633 5632 5630 5628 5626 5624
5735 5733 5732 5730 5727 5725 5722 5719 5716 5713 5710 5707 5703 5700 5696 5692 5688 5684 5679 5675 5671 5666 5662 5658 5654 5650 5646 5642 5639 5636 5634 5631 5629 5626 5624 5622 5620 5618 5616 5615 5613 5612 5611
5724 5722 5720 5718 5715 5712 5709 5706 5703 5699 5696 5692 5688 5684 5680 5675 5671 5667 5662 5658 5654 5649 5645 5641 5637 5633 5629 5625 5622 5619 5616 5614 5612 5609 5607 5606 5604 5603 5602 5601 5600 5599 5598
5713 5711 5708 5705 5702 5699 5696 5692 5689 5685 5681 5677 5672 5667 5663 5659 5655 5650 5646 5641 5637 5632 5628 5624 5620 5616 5612 5608 5606 5603 5600 5598 5596 5594 5593 5591 5590 5589 5588 5587 5587 5586 5585
5701 5698 5695 5692 5689 5685 5682 5678 5674 5670 5665 5661 5657 5652 5648 5643 5639 5634 5629 5625 5621 5616 5612 5608 5605 5601 5597 5593 5590 5588 5586 5584 5582 5580 5579 5578 5577 5576 5576 5575 5574 5574 5574
5688 5685 5681 5678 5675 5671 5667 5663 5659 5655 5650 5646 5642 5637 5633 5629 5624 5620 5615 5610 5606 5602 5598 5594 5590 5587 5583 5580 5577 5574 5572 5570 5569 5567 5566 5566 5565 5564 5564 5563 5563 5563 5562
5675 5671 5668 5664 5660 5657 5653 5649 5644 5640 5636 5631 5627 5623 5618 5614 5610 5606 5601 5597 5592 5588 5584 5580 5576 5573 5570 5567 5564 5561 5559 5557 5556 5555 5554 5554 5553 5553 5553 5553 5553 5552 5552
5661 5658 5654 5650 5646 5642 5639 5635 5631 5626 5622 5618 5613 5609 5605 5600 5596 5591 5587 5582 5578 5574 5570 5566 5563 5560 5557 5554 5552 5549 5547 5546 5544 5543 5542 5542 5542 5542 5542 5542 5542 5542 5542
5647 5644 5640 5636 5633 5629 5625 5621 5617 5613 5609 5605 5600 5596 5592 5587 5583 5578 5574 5569 5565 5561 5558 5554 5551 5548 5545 5543 5541 5539 5537 5535 5534 5533 5531 5531 5531 5532 5532 5532 5533 5533 5533